TimeCDT,TemperatureF,Dew PointF,Humidity,Sea Level PressureIn,VisibilityMPH,Wind Direction,Wind SpeedMPH,Gust SpeedMPH,PrecipitationIn,Events,Conditions,WindDirDegrees,DateUTC
12:51 AM,82.0,73.9,76,29.99,10.0,SSE,12.7,-,N/A,,Partly Cloudy,150,2013-07-08 05:51:00
1:51 AM,82.9,75.0,77,29.97,10.0,SSE,11.5,-,N/A,,Partly Cloudy,150,2013-07-08 06:51:00
2:51 AM,82.9,75.0,77,29.97,10.0,SSE,13.8,-,N/A,,Partly Cloudy,150,2013-07-08 07:51:00
3:51 AM,82.9,75.0,77,29.98,10.0,SSE,11.5,-,N/A,,Mostly Cloudy,150,2013-07-08 08:51:00
4:47 AM,82.4,71.6,70,30.00,10.0,South,25.3,36.8,N/A,,Mostly Cloudy,180,2013-07-08 09:47:00
4:51 AM,80.1,71.1,74,30.00,9.0,South,18.4,36.8,0.00,Rain,Light Rain,170,2013-07-08 09:51:00
5:13 AM,78.8,71.6,78,30.00,10.0,SSE,8.1,-,0.00,Rain,Light Rain,160,2013-07-08 10:13:00
5:51 AM,78.1,71.1,79,30.00,10.0,Calm,Calm,-,0.00,,Mostly Cloudy,0,2013-07-08 10:51:00
6:51 AM,78.1,71.1,79,30.01,10.0,Calm,Calm,-,N/A,,Mostly Cloudy,0,2013-07-08 11:51:00
7:51 AM,80.1,70.0,71,30.02,10.0,East,3.5,-,N/A,,Scattered Clouds,80,2013-07-08 12:51:00
8:51 AM,82.0,73.0,74,30.05,10.0,East,3.5,-,N/A,,Scattered Clouds,100,2013-07-08 13:51:00
9:51 AM,84.9,75.9,74,30.06,9.0,SE,12.7,-,N/A,,Partly Cloudy,130,2013-07-08 14:51:00
10:51 AM,88.0,73.9,63,30.08,10.0,SE,15.0,-,N/A,,Scattered Clouds,140,2013-07-08 15:51:00
11:51 AM,93.0,72.0,50,30.08,10.0,SSE,18.4,-,N/A,,Scattered Clouds,150,2013-07-08 16:51:00
12:51 PM,93.9,72.0,49,30.07,10.0,SE,17.3,27.6,N/A,,Scattered Clouds,140,2013-07-08 17:51:00
1:51 PM,91.9,73.0,54,30.05,10.0,SE,20.7,28.8,N/A,,Mostly Cloudy,140,2013-07-08 18:51:00
2:51 PM,93.9,72.0,49,30.04,10.0,SE,18.4,26.5,N/A,,Mostly Cloudy,140,2013-07-08 19:51:00
3:51 PM,93.0,72.0,50,30.02,10.0,SE,24.2,28.8,N/A,,Scattered Clouds,140,2013-07-08 20:51:00
4:51 PM,93.0,72.0,50,30.01,10.0,SE,21.9,-,N/A,,Scattered Clouds,130,2013-07-08 21:51:00
5:51 PM,91.9,72.0,52,30.01,10.0,SE,18.4,25.3,N/A,,Partly Cloudy,140,2013-07-08 22:51:00
6:51 PM,89.1,71.1,55,30.02,10.0,SE,17.3,-,N/A,,Partly Cloudy,130,2013-07-08 23:51:00
7:51 PM,87.1,73.9,65,30.03,10.0,SE,18.4,-,N/A,,Partly Cloudy,140,2013-07-09 00:51:00
8:51 PM,84.9,75.9,74,30.05,10.0,SE,13.8,-,N/A,,Partly Cloudy,140,2013-07-09 01:51:00
9:51 PM,84.9,75.9,74,30.07,10.0,SE,15.0,-,N/A,,Partly Cloudy,140,2013-07-09 02:51:00
10:51 PM,84.0,75.9,76,30.09,10.0,SE,11.5,-,N/A,,Partly Cloudy,130,2013-07-09 03:51:00
11:51 PM,82.9,75.9,79,30.09,10.0,SE,9.2,-,N/A,,Partly Cloudy,130,2013-07-09 04:51:00